Regional Weather Roundup
Issued by NWS

Home | Current Version | Previous Version | Text Only | Print | Product List | Glossary Off
Versions: 1 2 3 4 5 6 7 8 9 10 11 12 13 14 15 16 17 18 19 20 21 22 23 24 25 26 27 28 29 30 31 32 33 34 35 36 37 38 39 40 41 42 43 44 45 46 47 48 49 50

000
ASUS43 KOAX 260102
RWRNE

WEATHER ROUNDUP FOR NEBRASKA
NATIONAL WEATHER SERVICE OMAHA NE
700 PM CST SUN JAN 25 2015

NOTES: SATELLITE DATA IS BEING USED TO AUGMENT CLOUD COVER ABOVE
       12000 FEET.
       "FAIR" INDICATES FEW OR NO CLOUDS BELOW 12,000 FEET WITH NO
       SIGNIFICANT WEATHER AND/OR OBSTRUCTIONS TO VISIBILITY.

  * THESE STATIONS DO NOT REPORT WEATHER SUCH AS RAIN...SNOW OR FOG.

NEZ001>004-019>022-054>056-260200-
NEBRASKA PANHANDLE

CITY           SKY/WX    TMP DP  RH WIND       PRES   REMARKS
SCOTTSBLUFF    PTCLDY    44  33  65 W9        30.08R
ALLIANCE       MOCLDY    37  31  78 W8        30.04R WCI  31
CHADRON        CLOUDY    41  33  73 SW8       30.01S
SIDNEY         CLEAR     41  29  62 W13       30.10R
$$

NEZ057>060-069>072-079>082-260200-
SOUTHWEST NEBRASKA

CITY           SKY/WX    TMP DP  RH WIND       PRES   REMARKS
NORTH PLATTE   PTCLDY    32  21  64 CALM      30.04F
IMPERIAL       CLOUDY    47  32  56 W5        30.08R
LEXINGTON      CLEAR     32  26  78 S5        30.06S WCI  27
MCCOOK         CLEAR     43  19  38 S7        30.07S
$$

NEZ005>010-023>029-035>040-094-260200-
NORTH CENTRAL NEBRASKA

CITY           SKY/WX    TMP DP  RH WIND       PRES   REMARKS
VALENTINE      CLOUDY    36  27  69 S3        30.00R
AINSWORTH      MOCLDY    31  27  84 S3        30.02R
BROKEN BOW     CLEAR     28  23  81 CALM      30.04S
ORD            CLEAR     29  24  82 CALM      30.05S
$$

NEZ041-046>049-061>064-073>077-083>087-260200-
SOUTH CENTRAL NEBRASKA

CITY           SKY/WX    TMP DP  RH WIND       PRES   REMARKS
GRAND ISLAND   CLEAR     30  24  78 CALM      30.08F
AURORA         PTCLDY    31  26  80 W7        30.07F WCI  25
HASTINGS       CLEAR     33  25  72 CALM      30.08S
KEARNEY *      CLEAR     32  25  74 E5        30.07F WCI  27
$$

NEZ011>018-030>034-042>045-260200-
NORTHEAST NEBRASKA

CITY           SKY/WX    TMP DP  RH WIND       PRES   REMARKS
NORFOLK        MOCLDY    33  30  88 SW3       30.05S
ALBION         MOCLDY    34  31  88 CALM      30.06F
BLAIR          CLOUDY    37  32  84 W5        30.06F WCI  33
COLUMBUS *     CLOUDY    36  28  75 W3        30.09S
FREMONT        CLOUDY    36  32  85 CALM      30.08F
TEKAMAH        CLOUDY    36  32  85 W6        30.08S WCI  31
$$

NEZ050>053-065>068-078-088>093-260200-
SOUTHEAST NEBRASKA

CITY           SKY/WX    TMP DP  RH WIND       PRES   REMARKS
LINCOLN        CLOUDY    38  31  76 CALM      30.10S
OMAHA EPPLEY   CLOUDY    37  32  82 CALM      30.08S
FALLS CITY     MOCLDY    36  29  75 N5        30.09R WCI  32
NEBRASKA CITY  CLOUDY    37  26  63 NW5       30.08S WCI  33
$$

NEZ044-045-051>053-067-260200-
OMAHA AREA

CITY           SKY/WX    TMP DP  RH WIND       PRES   REMARKS
OMAHA EPPLEY   CLOUDY    37  32  82 CALM      30.08S
BLAIR          CLOUDY    37  32  84 W5        30.06F WCI  33
FREMONT        CLOUDY    36  32  85 CALM      30.08F
MILLARD        CLOUDY    38  33  82 NW3       30.08S
OFFUTT AFB     CLOUDY    37  30  77 NW5       30.07S WCI  33
WAHOO          CLOUDY    35  30  81 CALM      30.08F
$$



USA.gov is the U.S. government's official web portal to all federal, state and local government web resources and services.